Date String (YYYY-MM-DD hh:mm:ss) UTC,Instrument flags,absolute air pressure of the measurement (hPa),sample flow rate (lpm),inlet stack bypass flow (lpm),air temperature of the measurement (°C),ambient temperature measured by the external sensor (°C),aerosol sample conditioner tube jacket temperature (°C),OPC LED temperature (°C),internal box temperature (°C),relative humidity of the measurement (%),span deviation,mass concentration of particles derived from Lorenz-Mie calculation of OPC scattering (μg/m³),mass concentration of particles derived from Lorenz-Mie calculation of OPC scattering (μg/m³),mass concentration of particles derived from Lorenz-Mie calculation of OPC scattering (μg/m³)
DateTimeUTC,F1_M11,P_M11,Q1_M11,Q2_M11,T1_M11,T2_M11,T3_M11,T4_M11,T5_M11,U1_M11,ZSPAN_M11,X0_M11,X2_M11,X1_M11
2024-02-10 05:00:00,SystemResetWarning,0824.9,5.00,000.00,019.7,019.1,000.0,028.3,021.4,22.4,0000.0,0007.10,0004.76,0004.64
2024-02-10 05:01:00,SystemResetWarning,0824.9,5.00,000.00,019.7,019.1,000.0,028.3,021.4,22.3,0000.0,0006.73,0004.64,0004.52
2024-02-10 05:02:00,SystemResetWarning,0824.9,5.00,000.00,019.7,019.1,000.0,028.3,021.3,22.2,0000.0,0006.45,0004.50,0004.39
2024-02-10 05:03:00,SystemResetWarning,0824.9,5.00,000.00,019.7,019.1,000.0,028.3,021.4,22.2,0000.0,0006.11,0004.35,0004.24
2024-02-10 05:04:00,SystemResetWarning,0824.9,5.00,000.00,019.7,019.1,000.0,028.2,021.3,22.2,0000.0,0005.87,0004.22,0004.11
2024-02-10 05:05:00,SystemResetWarning,0824.9,5.00,000.00,019.6,019.1,000.0,028.2,021.3,22.2,0000.0,0005.59,0004.10,0004.00
2024-02-10 05:06:00,SystemResetWarning,0824.9,5.00,000.00,019.6,019.1,000.0,028.2,021.3,22.1,0000.0,0005.18,0003.93,0003.86
2024-02-10 05:07:00,SystemResetWarning,0824.9,5.00,000.00,019.6,019.0,000.0,028.2,021.3,22.1,0000.0,0004.93,0003.80,0003.72
2024-02-10 05:08:00,SystemResetWarning,0824.9,5.00,000.00,019.6,019.0,000.0,028.2,021.3,22.1,0000.0,0004.69,0003.67,0003.59
2024-02-10 05:09:00,SystemResetWarning,0824.9,4.99,000.00,019.6,019.0,000.0,028.2,021.3,22.1,0000.0,0004.59,0003.60,0003.51
2024-02-10 05:10:00,SystemResetWarning,0824.9,5.00,000.00,019.6,019.0,000.0,028.2,021.3,22.1,0000.0,0004.41,0003.53,0003.44
2024-02-10 05:11:00,SystemResetWarning,0824.9,5.00,000.00,019.6,019.0,000.0,028.2,021.3,22.1,0000.0,0004.38,0003.49,0003.40
2024-02-10 05:12:00,SystemResetWarning,0824.9,5.00,000.00,019.6,019.0,000.0,028.1,021.3,22.1,0000.0,0004.28,0003.44,0003.35
2024-02-10 05:13:00,SystemResetWarning,0824.9,5.00,000.00,019.6,019.0,000.0,028.1,021.3,22.1,0000.0,0004.20,0003.40,0003.32
2024-02-10 05:14:00,SystemResetWarning,0824.9,5.00,000.00,019.6,019.0,000.0,028.1,021.2,22.1,0000.0,0004.18,0003.40,0003.32
2024-02-10 05:15:00,SystemResetWarning,0824.9,5.01,000.00,019.5,019.0,000.0,028.1,021.2,22.1,0000.0,0004.17,0003.40,0003.33
2024-02-10 05:16:00,SystemResetWarning,0824.9,5.00,000.00,019.5,019.0,000.0,028.1,021.2,22.2,0000.0,0004.17,0003.41,0003.34
2024-02-10 05:17:00,SystemResetWarning,0824.9,4.99,000.00,019.5,019.0,000.0,028.1,021.2,22.2,0000.0,0004.19,0003.42,0003.35
2024-02-10 05:18:00,SystemResetWarning,0824.9,4.99,000.00,019.5,018.9,000.0,028.1,021.2,22.2,0000.0,0004.31,0003.45,0003.37
2024-02-10 05:19:00,SystemResetWarning,0824.9,5.00,000.00,019.5,018.9,000.0,028.1,021.2,22.2,0000.0,0004.36,0003.47,0003.39
2024-02-10 05:20:00,SystemResetWarning,0824.9,5.00,000.00,019.5,018.9,000.0,028.1,021.2,22.2,0000.0,0004.33,0003.48,0003.40
2024-02-10 05:21:00,SystemResetWarning,0824.8,5.00,000.00,019.5,018.9,000.0,028.0,021.1,22.2,0000.0,0004.32,0003.50,0003.43
2024-02-10 05:22:00,SystemResetWarning,0824.8,5.00,000.00,019.5,018.9,000.0,028.0,021.1,22.2,0000.0,0004.89,0003.51,0003.46
2024-02-10 05:23:00,SystemResetWarning,0824.8,5.00,000.00,019.4,018.9,000.0,028.0,021.1,22.3,0000.0,0004.99,0003.52,0003.48
2024-02-10 05:24:00,SystemResetWarning,0824.8,5.00,000.00,019.4,018.8,000.0,028.0,021.1,22.3,0000.0,0005.01,0003.54,0003.49
2024-02-10 05:25:00,SystemResetWarning,0824.8,5.00,000.00,019.4,018.8,000.0,028.0,021.0,22.3,0000.0,0005.06,0003.56,0003.51
2024-02-10 05:26:00,SystemResetWarning,0824.8,5.00,000.00,019.4,018.8,000.0,028.0,021.1,22.3,0000.0,0005.19,0003.59,0003.52
2024-02-10 05:27:00,SystemResetWarning,0824.8,5.00,000.00,019.4,018.8,000.0,028.0,021.0,22.3,0000.0,0005.25,0003.61,0003.54
2024-02-10 05:28:00,SystemResetWarning,0824.9,4.99,000.00,019.4,018.8,000.0,028.0,021.0,22.4,0000.0,0005.31,0003.63,0003.56
2024-02-10 05:29:00,SystemResetWarning,0824.9,4.99,000.00,019.4,018.8,000.0,028.0,021.1,22.4,0000.0,0005.30,0003.66,0003.58
2024-02-10 05:30:00,SystemResetWarning,0824.9,5.00,000.00,019.4,018.8,000.0,027.9,021.1,22.4,0000.0,0005.31,0003.67,0003.59
2024-02-10 05:31:00,SystemResetWarning,0824.9,5.01,000.00,019.4,018.8,000.0,027.9,021.0,22.4,0000.0,0005.37,0003.69,0003.61
2024-02-10 05:32:00,SystemResetWarning,0824.9,5.01,000.00,019.3,018.8,000.0,027.9,021.0,22.4,0000.0,0005.70,0003.71,0003.62
2024-02-10 05:33:00,SystemResetWarning,0824.9,5.00,000.00,019.3,018.7,000.0,027.9,021.0,22.5,0000.0,0005.86,0003.72,0003.63
2024-02-10 05:34:00,SystemResetWarning,0824.9,4.99,000.00,019.3,018.7,000.0,027.9,021.0,22.5,0000.0,0005.65,0003.74,0003.64
2024-02-10 05:35:00,SystemResetWarning,0824.9,4.99,000.00,019.3,018.7,000.0,027.9,021.0,22.5,0000.0,0005.82,0003.79,0003.66
2024-02-10 05:36:00,SystemResetWarning,0824.9,4.99,000.00,019.3,018.7,000.0,027.9,021.0,22.5,0000.0,0005.84,0003.80,0003.67
2024-02-10 05:37:00,SystemResetWarning,0824.9,5.01,000.00,019.3,018.7,000.0,027.9,021.0,22.5,0000.0,0005.81,0003.80,0003.68
2024-02-10 05:38:00,SystemResetWarning,0824.8,5.00,000.00,019.3,018.7,000.0,027.9,021.0,22.5,0000.0,0005.81,0003.81,0003.69
2024-02-10 05:39:00,SystemResetWarning,0824.9,5.00,000.00,019.3,018.7,000.0,027.8,021.0,22.5,0000.0,0005.95,0003.80,0003.68
2024-02-10 05:40:00,SystemResetWarning,0824.9,5.00,000.00,019.3,018.7,000.0,027.8,021.0,22.5,0000.0,0006.34,0003.79,0003.67
2024-02-10 05:41:00,SystemResetWarning,0824.9,4.99,000.00,019.3,018.7,000.0,027.8,021.0,22.5,0000.0,0006.40,0003.79,0003.66
2024-02-10 05:42:00,SystemResetWarning,0824.9,4.99,000.00,019.3,018.7,000.0,027.8,021.0,22.5,0000.0,0006.38,0003.79,0003.66
2024-02-10 05:43:00,SystemResetWarning,0824.9,5.00,000.00,019.2,018.7,000.0,027.8,021.0,22.5,0000.0,0006.39,0003.78,0003.64
2024-02-10 05:44:00,SystemResetWarning,0824.9,5.01,000.00,019.2,018.7,000.0,027.8,021.0,22.6,0000.0,0005.80,0003.76,0003.62
2024-02-10 05:45:00,SystemResetWarning,0824.9,5.01,000.00,019.2,018.7,000.0,027.8,021.0,22.5,0000.0,0005.76,0003.75,0003.60
2024-02-10 05:46:00,SystemResetWarning,0824.9,5.01,000.00,019.2,018.7,000.0,027.8,021.0,22.6,0000.0,0005.62,0003.70,0003.57
2024-02-10 05:47:00,SystemResetWarning,0824.9,4.99,000.00,019.2,018.7,000.0,027.8,021.0,22.6,0000.0,0005.57,0003.67,0003.54
2024-02-10 05:48:00,SystemResetWarning,0824.9,4.99,000.00,019.2,018.7,000.0,027.8,021.0,22.6,0000.0,0005.50,0003.64,0003.52
2024-02-10 05:49:00,SystemResetWarning,0824.9,5.00,000.00,019.2,018.7,000.0,027.8,021.0,22.6,0000.0,0005.40,0003.60,0003.48
2024-02-10 05:50:00,SystemResetWarning,0824.9,5.01,000.00,019.2,018.7,000.0,027.8,021.0,22.6,0000.0,0005.23,0003.58,0003.46
2024-02-10 05:51:00,SystemResetWarning,0824.9,5.01,000.00,019.2,018.7,000.0,027.8,021.0,22.6,0000.0,0004.84,0003.57,0003.44
2024-02-10 05:52:00,SystemResetWarning,0824.9,5.00,000.00,019.2,018.7,000.0,027.8,021.0,22.5,0000.0,0004.73,0003.53,0003.42
2024-02-10 05:53:00,SystemResetWarning,0824.9,5.00,000.00,019.2,018.7,000.0,027.7,021.0,22.5,0000.0,0004.77,0003.52,0003.39
2024-02-10 05:54:00,SystemResetWarning,0824.9,4.99,000.00,019.2,018.7,000.0,027.7,021.0,22.5,0000.0,0004.72,0003.51,0003.38
2024-02-10 05:55:00,SystemResetWarning,0825.0,5.00,000.00,019.2,018.7,000.0,027.7,020.9,22.5,0000.0,0004.65,0003.50,0003.36
2024-02-10 05:56:00,SystemResetWarning,0825.0,5.01,000.00,019.2,018.6,000.0,027.7,020.9,22.5,0000.0,0004.54,0003.46,0003.34
2024-02-10 05:57:00,SystemResetWarning,0825.0,5.01,000.00,019.2,018.6,000.0,027.7,020.9,22.5,0000.0,0004.47,0003.43,0003.32
2024-02-10 05:58:00,SystemResetWarning,0825.0,5.01,000.00,019.2,018.6,000.0,027.7,020.9,22.4,0000.0,0004.51,0003.42,0003.29
2024-02-10 05:59:00,SystemResetWarning,0825.0,5.00,000.00,019.2,018.6,000.0,027.7,020.9,22.5,0000.0,0004.51,0003.39,0003.25
